This demonstration page uses our WeatherBlox Daily Observations layout. Learn more.

Left ArrowRight Arrow

39.08367, -84.50855

Hourly Observations for March 16, 2018

Temp ( °F °C ) Dew Point ( °F °C ) Humidity (%) Winds ( mph kmh ) Pressure ( in mb ) Visibility ( mi km ) Precip ( " mm )
12:53 am 00:53 Clear 40 4.4 25 -3.9 55 55 N 13 20 29.95 1014 10 16 N/A
1:53 am 01:53 Clear 36 2.2 25 -3.9 64 64 NNE 7 11 29.99 1016 10 16 N/A
2:53 am 02:53 Clear 35 1.7 17 -8.3 48 48 N 15 24 30.01 1016 10 16 N/A
3:53 am 03:53 Clear 33 0.6 18 -7.8 54 54 N 17 28 30.04 1017 10 16 N/A
4:53 am 04:53 Clear 31 -0.6 13 -10.6 47 47 N 13 20 30.06 1018 10 16 N/A
5:53 am 05:53 Clear 29 -1.7 10 -12.2 45 45 N 13 20 30.09 1019 10 16 N/A
6:53 am 06:53 Clear 27 -2.8 10 -12.2 49 49 N 12 19 30.11 1020 10 16 N/A
7:53 am 07:53 Sunny 26 -3.3 10 -12.2 51 51 N 12 19 30.16 1021 10 16 N/A
8:53 am 08:53 Sunny 28 -2.2 11 -11.7 49 49 N 10 17 30.19 1022 10 16 N/A
9:53 am 09:53 Sunny 30 -1.1 12 -11.1 47 47 NE 12 19 30.22 1023 10 16 N/A
10:53 am 10:53 Sunny 31 -0.6 12 -11.1 45 45 NE 8 13 30.23 1024 10 16 N/A
11:53 am 11:53 Sunny 35 1.7 14 -10 42 42 VRB 5 7 30.23 1024 10 16 N/A
12:53 pm 12:53 Sunny 38 3.3 14 -10 37 37 VRB 5 7 30.23 1024 10 16 N/A
1:53 pm 13:53 Sunny 39 3.9 12 -11.1 33 33 E 5 7 30.21 1023 10 16 N/A
2:53 pm 14:53 Sunny 44 6.7 16 -8.9 32 32 NNE 10 17 30.17 1022 10 16 N/A
3:53 pm 15:53 Sunny 43 6.1 16 -8.9 34 34 NNE 9 15 30.16 1021 10 16 N/A
4:53 pm 16:53 Sunny 44 6.7 16 -8.9 32 32 ENE 13 20 30.13 1020 10 16 N/A
5:53 pm 17:53 Sunny 44 6.7 17 -8.3 34 34 E 7 11 30.12 1020 10 16 N/A
6:53 pm 18:53 Sunny 43 6.1 16 -8.9 34 34 E 5 7 30.12 1020 10 16 N/A
7:53 pm 19:53 Clear 40 4.4 16 -8.9 38 38 E 3 6 30.11 1020 10 16 N/A
8:53 pm 20:53 Clear 38 3.3 20 -6.7 48 48 N 3 6 30.11 1020 10 16 N/A
9:53 pm 21:53 Clear 35 1.7 23 -5 61 61 ENE 3 6 30.09 1019 10 16 N/A
10:53 pm 22:53 Clear 35 1.7 21 -6.1 57 57 NNE 7 11 30.09 1019 10 16 N/A
11:53 pm 23:53 Mostly Cloudy 36 2.2 20 -6.7 52 52 NE 7 11 30.07 1018 10 16 N/A

Powered by AerisWeather